Погода в Уральце

Россия / Свердловская область     57°39′39″N   59°38′55″E
темп.,
°C
ветер,
м/с
пор.,
м/с
влажн.,
%
обл.,
%
осадки,
мм/ч
давл.,
гПа
погр.,
м
24 июня, чт
чт2423:00+10ююз007171 0.0 102010
02:00+8з11775 0.0 102110
05:00+9зюз11745 0.0 102010
08:00+17з254845 0.0 1019437
11:00+22зсз453756 0.0 10181396
14:00+25зсз453762 0.0 10161891
17:00+25зсз4639100 0.0 10152052
20:00+23з365530 0.0 1013327
25 июня, пт
пт2523:00+17ссз3793100 1.9 1013189
02:00+16зюз229734 1.3 101163
05:00+16з119846 1.4 101113
08:00+19ссз1288100 0.0 1011377
11:00+23ссв236497 0.1 10111143
14:00+24св2358100 0.1 10111209
17:00+26св235210 0.1 10111236
20:00+24в246436 0.0 1010179
26 июня, сб
сб2623:00+18ююз2296100 3.4 101161
02:00+17юв1199100 3.5 101037
05:00+16юз119924 4.1 101037
08:00+20зюз23860 0.0 1009394
11:00+25ссз235672 0.0 10091121
14:00+27зюз135313 0.5 10081404
17:00+24сз35813 2.4 1008888
20:00+21ссз26905 1.9 1008287
27 июня, вс
вс2723:00+18зсз119178 2.1 100912
02:00+16с229817 0.0 101053
05:00+15с2597100 0.0 1011330
08:00+16с239472 0.1 1013348
11:00+20ссз237272 0.1 1012849
14:00+22ссз245884 0.2 10131354
17:00+24с354976 0.2 10131893
20:00+20св2470100 0.0 1013167
28 июня, пн
пн2823:00+15всв24900 0.0 101576
02:00+13всв11950 0.0 101610
05:00+12св01960 0.0 101810
08:00+17всв23720 0.0 1018489
11:00+22в23490 0.0 10181173
14:00+25всв22400 0.0 10171818
17:00+25всв21385 0.0 10172080
20:00+23вюв23575 0.0 101769